Regional Weather Roundup
Issued by NWS Sioux Falls, SD

Home | Current Version | Previous Version | Graphics & Text | Print | Product List | Glossary Off
Versions: 1 2 3 4 5 6 7 8 9 10 11 12 13 14 15 16 17 18 19 20 21 22 23 24 25 26 27 28 29 30 31 32 33 34 35 36 37 38 39 40 41 42 43 44 45 46 47 48 49 50

000
ASUS43 KFSD 212210
RWRFSD

WEATHER ROUNDUP FOR SE SOUTH DAKOTA/SW MINNESOTA/NW IOWA
NATIONAL WEATHER SERVICE SIOUX FALLS SD
500 PM CDT SUN SEP 21 2014

NOTE: "FAIR" INDICATES FEW OR NO CLOUDS BELOW 12,000 FEET WITH NO
SIGNIFICANT WEATHER AND OR OBSTRUCTIONS TO VISIBILITY.


SDZ038>040-050-052>070-212300-
SOUTHEAST SOUTH DAKOTA

CITY           SKY/WX    TMP DP  RH WIND       PRES   REMARKS
CHAMBERLAIN    SUNNY     72  40  31 N6        30.24F
HURON          MOSUNNY   72  44  36 N9G20     30.23S
MADISON        MOCLDY    66  45  45 N12G17    30.24S
MITCHELL       SUNNY     72  44  36 N8G16     30.24S
SIOUX FALLS    MOSUNNY   71  45  39 NW15      30.22S
WINNER         FAIR      74  37  26 N9        30.26F
YANKTON        MOSUNNY   70  45  40 N9        30.23F
$$

MNZ071-072-080-081-089-090-097-098-212300-
SOUTHWEST MINNESOTA

CITY           SKY/WX    TMP DP  RH WIND       PRES   REMARKS
FAIRMONT       CLOUDY    64  45  48 NW15      30.19S
JACKSON        MOSUNNY   66  45  45 NW16      30.22R
LUVERNE        PTSUNNY   70  43  37 N5        30.22S
MARSHALL       MOSUNNY   66  45  45 N14G20    30.21R
MONTEVIDEO     SUNNY     66  48  52 NE13      30.22S
PIPESTONE      MOSUNNY   68  45  42 N8        30.22S
REDWOOD FALLS  PTSUNNY   66  50  56 NW13      30.20R
TRACY          MOSUNNY   67  47  49 N9        30.22S
WINDOM         MOSUNNY   66  46  48 NW13G20   30.21S
WORTHINGTON    MOSUNNY   64  45  48 N13       30.23R
$$

IAZ001>003-012>014-020>022-031-032-NEZ013-014-SDZ071-212300-
NORTHWEST IOWA

CITY           SKY/WX    TMP DP  RH WIND       PRES   REMARKS
CHEROKEE       PTSUNNY   68  47  46 NW10      30.20S
DENISON        MOSUNNY   66  48  52 N10G20    30.18S
ESTHERVILLE    MOSUNNY   65  48  54 N17       30.20S
LE MARS        MOSUNNY   70  46  43 N12G20    30.22S
ORANGE CITY    PTSUNNY   72  45  37 N8        30.22S
SHELDON        SUNNY     66  46  48 N10G16    30.20S
SIOUX CITY     PTSUNNY   69  48  47 N12       30.22R
SPENCER        MOSUNNY   68  47  46 N16G23    30.21R
$$

ABBREVIATIONS USED IN REMARKS
   TC - TEMPERATURE IN CELSIUS
  WCI - WIND CHILL INDEX
   HX - HEAT INDEX
  VSB - VISIBILITY




USA.gov is the U.S. government's official web portal to all federal, state and local government web resources and services.